Location: Sternwarte ZA, Rosenfeld-Brittheim
(48.2889°N, 8.6789°E)
Time: 22:32:39
(UTC+02:00)

ISS - Pass Details

Date: 13 September 2019
Orbit: 411 x 421 km, 51.6° (Epoch: 19 September)

Event Time Altitude Azimuth Distance (km) Brightness Sun altitude
Exits shadow 05:30:39 32° 266° (W) 740 -3.0 -14.9°
Maximum altitude 05:31:49 49° 211° (SSW) 544 -3.6 -14.7°
Drops below altitude 10° 05:35:04 10° 135° (SE) 1,489 -0.7 -14.2°
Sets 05:37:11 0° 130° (SE) 2,351 0.4 -13.9°
